Location: Bothwell
(42.3833°S, 147.0000°E)
Time: 22:58:56
(UTC+11:00)

UWE-3 - Pass Details

Date: 29 September 2022
Orbit: 582 x 675 km, 97.7° (Epoch: 03 December)

Event Time Altitude Azimuth Distance (km) Brightness Sun altitude
Exits shadow 01:34:47 12° 157° (SSE) 1,986 ? -40.8°
Drops below altitude 10° 01:35:13 10° 161° (SSE) 2,106 ? -40.8°
Sets 01:38:00 0° 177° (S) 3,042 ? -40.5°
